Lid_Strength_Index
7 6 6 6 5 4 4 3 3 3 3 3 2 2 2 2 2 2 4 3 3 3 3 3 3 3 5 5 5 3 3 3 5 5 5 5 6 5 5 5 4 4 3
8 7 7 7 6 6 6 5 5 5 4 3 3 2 2 2 3 4 4 3 4 4 4 4 4 4 6 6 4 4 4 5 6 6 6 6 6 5 6 6 5 5 4
7 7 8 8 8 8 8 7 6 6 5 4 3 3 3 2 3 3 3 3 3 4 4 5 6 6 7 7 6 6 6 6 7 6 7 6 6 6 7 6 6 7 5
9 9 9 9 9 8 8 7 6 6 5 4 4 3 3 3 2 2 2 3 3 3 4 4 5 6 5 7 7 7 6 7 7 7 7 7 7 7 7 8 9 8 8
9 9 9 9 8 9 8 8 7 6 5 4 2 2 2 2 2 2 2 2 3 4 4 4 4 4 3 5 6 8 8 10 11 9 9 8 9 10 11 10 9 10 8
9 9 8 9 8 9 8 7 7 6 5 4 4 4 4 3 3 2 2 3 4 3 4 3 4 4 4 4 4 5 7 10 11 9 10 10 9 9 8 8 8 9 11
9 8 8 9 8 8 7 6 7 6 5 5 6 5 6 6 4 3 3 4 5 2 4 4 5 5 5 6 5 6 6 6 6 10 11 9 9 8 8 8 8 9 9
9 9 9 8 8 8 7 6 6 6 6 7 6 5 6 5 5 5 4 3 3 4 4 4 5 5 5 6 7 9 9 9 8 8 10 10 10 9 9 8 8 8 8
9 9 9 8 7 7 7 7 7 7 6 6 6 6 6 6 6 6 5 5 5 5 4 4 4 5 7 7 7 8 8 8 6 6 7 7 8 7 6 8 9 9 9
9 9 8 7 7 8 7 7 7 6 7 7 7 6 6 6 6 6 5 5 6 6 6 6 7 8 9 9 7 8 9 9 8 8 8 8 8 6 5 6 7 9 9
8 8 8 7 7 7 7 7 7 7 7 8 8 7 7 7 7 8 7 6 7 7 7 8 8 9 9 10 10 10 10 9 9 8 8 8 9 8 8 6 6 7 9
8 8 8 8 7 7 8 8 8 8 9 9 9 9 8 8 8 9 9 8 8 9 9 9 9 9 10 10 10 10 10 9 9 7 8 9 9 9 8 6 6 6 6
9 9 9 9 8 8 9 9 9 9 9 9 9 11 11 10 9 8 9 9 8 9 9 8 9 9 10 9 8 8 8 9 7 6 7 7 8 9 7 6 5 5 5
10 10 10 10 10 9 9 9 10 10 10 10 11 12 12 11 10 10 10 10 9 9 8 9 8 8 8 7 7 7 7 7 6 6 7 7 8 8 7 6 7 6 7
9 9 10 10 10 10 10 10 11 11 11 12 12 11 11 12 12 11 11 11 10 8 9 9 10 10 9 9 8 8 7 6 6 6 7 8 8 7 6 6 6 6 7
11 10 10 11 11 12 13 12 10 10 9 10 10 11 11 10 9 9 9 9 9 8 9 11 11 11 10 10 9 9 8 8 9 8 9 8 7 6 7 6 6 6 7
13 13 13 12 13 13 13 13 14 12 10 10 10 10 10 10 9 9 9 9 9 9 10 11 11 11 10 9 9 9 9 9 9 7 6 6 5 6 6 6 6 6 7
11 9 13 13 13 13 13 13 14 14 14 13 10 10 9 9 9 9 9 9 10 10 11 11 11 11 10 10 10 10 8 8 7 6 5 6 5 5 6 6 6 7 7
11 11 13 13 13 13 13 13 13 13 13 13 12 10 10 9 9 9 10 12 12 12 12 11 12 12 12 11 11 11 9 8 7 6 6 5 5 6 6 6 6 8 8
11 10 12 13 12 13 13 13 13 13 13 13 12 12 11 10 11 11 11 11 12 12 12 12 12 12 12 12 12 11 10 9 8 7 6 5 5 6 6 7 7 7 7
11 12 11 12 13 13 13 13 13 12 12 12 12 12 12 11 12 12 12 12 12 12 12 12 12 12 12 12 12 11 11 10 10 9 6 5 5 6 6 6 6 6 7
12 12 13 13 13 12 12 12 12 12 12 11 11 11 11 11 12 12 12 12 12 12 11 12 12 12 12 12 12 12 11 11 11 10 8 6 6 7 7 7 7 7 7
11 12 12 12 12 12 12 12 12 11 11 11 11 10 10 11 11 11 11 11 11 11 11 11 11 11 11 11 11 11 11 11 11 11 8 8 8 7 7 8 8 8 8
11 11 11 12 12 12 12 12 11 11 11 10 10 10 10 10 11 10 11 11 11 11 11 11 11 11 10 10 10 11 11 11 10 9 7 8 8 8 7 8 8 8 8
11 11 11 11 12 12 12 11 11 10 10 10 10 10 10 10 11 10 10 10 10 11 10 11 11 10 10 11 11 11 10 10 10 9 7 8 7 7 7 7 8 8 8
11 11 11 11 12 11 11 11 11 10 10 9 10 10 10 10 10 10 10 10 10 11 10 10 10 10 10 10 10 11 10 10 10 9 8 8 8 7 7 7 8 8 8